Temp
61 60 62 61 61 59 57 56 52 46 45 44 46 51 52 53 54 54 53 57 57 57 57 57 57 57 57 57 57 57 57 57 57 57 58 59 60 60
60 61 61 58 59 58 57 57 56 52 43 44 42 48 50 50 52 50 52 54 55 55 55 54 54 54 54 54 54 54 54 55 55 55 57 58 58 59
60 62 59 60 57 57 57 56 54 50 43 42 44 45 47 47 48 49 50 50 52 54 53 53 52 52 52 51 52 52 53 53 53 54 55 56 57 57
59 60 59 58 57 57 56 53 51 49 44 40 41 42 43 45 46 48 50 51 50 53 53 52 52 51 50 50 50 51 52 51 51 52 53 54 56 56
59 59 58 57 56 53 51 50 48 47 45 42 40 42 43 46 46 47 46 45 50 52 52 52 51 51 50 50 50 50 50 50 50 50 50 51 53 54
59 59 58 57 53 51 49 47 46 44 43 41 40 40 42 44 46 43 40 39 39 47 49 49 48 48 49 49 50 50 48 50 50 50 49 50 51 52
57 58 57 56 55 53 48 46 45 43 42 40 39 40 41 42 42 41 38 37 35 38 37 39 37 36 42 46 48 48 48 49 49 49 49 49 50 51
54 54 55 54 54 53 51 51 48 43 42 42 41 41 43 43 41 38 37 34 30 36 33 32 35 33 37 41 48 47 48 48 49 48 48 48 49 50
52 51 51 52 52 51 52 52 52 52 51 48 45 44 43 39 37 35 33 32 30 34 33 29 32 30 35 41 47 47 47 48 48 48 48 48 48 49
51 50 50 49 51 51 50 48 47 47 48 48 44 42 41 41 40 38 35 32 33 34 34 28 30 29 33 34 47 47 47 47 48 48 47 48 47 47
49 50 50 49 52 50 45 43 43 45 51 52 51 51 51 49 44 38 34 32 28 29 31 31 30 30 31 32 36 47 47 48 48 48 47 47 45 44
47 50 51 49 50 48 43 41 38 38 39 38 38 40 41 43 44 35 33 31 29 28 32 31 30 31 29 31 33 34 35 46 46 46 46 46 46 41
48 48 49 50 49 48 46 41 40 41 41 37 36 36 36 36 36 36 34 33 30 29 35 33 30 30 30 30 31 32 33 33 35 41 42 43 44 43
46 47 48 50 49 49 47 48 47 43 38 36 34 33 33 33 34 35 34 33 33 32 33 34 31 30 28 27 28 31 32 35 39 39 39 42 42 42
47 49 50 50 50 49 49 47 44 39 36 34 33 32 33 34 34 35 35 33 35 38 39 35 32 31 30 27 29 28 33 37 38 37 37 38 37 38
47 45 47 47 48 46 43 42 40 37 36 34 32 30 31 32 31 31 32 31 32 32 35 36 34 33 31 28 30 32 35 33 34 37 38 39 40 39
42 41 40 39 38 38 38 37 36 36 35 35 34 33 32 32 32 32 31 31 29 28 29 32 33 35 34 29 27 32 33 31 36 36 37 36 37 39
42 38 37 37 36 36 36 35 36 38 35 35 33 32 32 33 33 33 32 30 29 30 29 29 30 30 31 34 37 30 33 29 35 37 32 33 32 37
39 38 37 37 36 36 35 36 35 35 34 34 32 32 32 36 32 32 31 31 31 31 31 31 31 28 26 26 29 39 28 29 30 33 33 32 32 35
39 37 36 36 36 36 36 36 35 34 34 34 34 33 33 33 32 32 31 30 30 30 30 29 29 28 24 23 25 29 39 29 33 30 32 36 38 42
37 37 37 37 36 36 35 35 36 35 34 34 34 34 32 32 30 30 33 36 33 29 27 28 31 42 32 31 28 28 30 39 37 31 29 32 31 34
37 36 36 37 35 36 35 34 35 35 33 34 33 32 32 32 31 31 31 30 29 29 29 31 32 33 31 29 26 27 28 31 36 40 41 38 30 28
37 37 35 36 35 35 35 34 34 33 33 33 34 32 32 31 32 31 31 31 31 31 31 30 31 31 31 30 30 27 29 29 30 30 31 41 42 42
MSLP
1003.70 1003.97 1004.07 1004.12 1004.91 1005.98 1006.75 1007.58 1008.31 1011.41 1013.59 1013.96 1014.28 1014.10 1014.10 1014.95 1015.56 1015.69 1016.24 1016.38 1016.45 1016.63 1016.88 1017.01 1016.99 1017.03 1017.16 1017.27 1017.10 1016.92 1016.61 1016.23 1016.03 1015.59 1014.81 1014.14 1013.61 1013.10
1003.54 1003.06 1003.30 1003.82 1004.63 1005.60 1006.56 1007.53 1008.38 1009.55 1012.59 1014.47 1015.14 1014.89 1014.96 1015.81 1016.34 1016.54 1017.15 1017.28 1017.43 1017.55 1017.74 1017.90 1017.88 1018.13 1018.61 1018.47 1018.23 1017.99 1017.57 1016.88 1016.76 1016.12 1015.33 1014.74 1014.18 1013.59
1002.82 1002.44 1002.76 1003.37 1004.44 1005.50 1006.35 1007.48 1008.69 1010.07 1011.75 1014.70 1015.39 1015.72 1016.11 1016.45 1016.96 1017.40 1017.83 1017.96 1018.07 1018.41 1018.71 1018.75 1018.92 1019.39 1019.35 1019.06 1018.94 1018.62 1018.04 1017.68 1017.44 1016.71 1016.12 1015.53 1015.01 1014.65
1001.93 1002.00 1002.44 1003.17 1004.25 1005.40 1006.28 1007.64 1009.23 1010.56 1010.99 1014.07 1015.92 1016.36 1016.72 1016.90 1017.37 1017.88 1018.31 1018.47 1018.84 1019.30 1019.54 1019.44 1019.73 1019.72 1019.71 1019.91 1019.67 1019.07 1018.59 1018.51 1017.92 1017.47 1017.06 1016.29 1015.67 1015.12
1000.83 1001.27 1002.14 1002.99 1004.13 1005.36 1006.72 1008.19 1009.50 1010.48 1012.66 1013.67 1015.82 1016.71 1017.00 1017.52 1017.97 1018.53 1019.11 1019.33 1019.49 1019.84 1020.02 1020.03 1019.99 1020.38 1020.59 1020.24 1019.88 1019.57 1019.27 1018.96 1018.42 1018.32 1017.92 1017.44 1016.72 1016.26
1000.29 1000.95 1001.83 1002.74 1003.80 1005.54 1007.12 1008.46 1009.30 1011.15 1013.31 1014.75 1015.72 1016.68 1017.44 1018.04 1018.37 1018.95 1019.97 1020.24 1020.53 1020.48 1020.57 1020.79 1021.29 1021.42 1021.10 1020.76 1020.40 1020.12 1020.03 1019.38 1018.97 1018.78 1018.50 1018.11 1017.69 1017.17
1000.42 1001.22 1002.14 1003.24 1004.52 1005.69 1007.01 1008.74 1010.55 1011.58 1013.20 1014.64 1015.96 1017.02 1017.73 1018.21 1018.66 1019.61 1020.39 1020.87 1021.33 1021.48 1021.86 1022.13 1022.34 1022.55 1022.15 1021.68 1021.22 1020.93 1020.52 1019.82 1019.67 1019.28 1018.86 1018.55 1018.14 1017.60
1001.05 1002.35 1003.41 1004.43 1005.53 1006.11 1007.66 1009.59 1010.04 1011.17 1013.45 1014.69 1015.99 1016.76 1017.47 1018.38 1019.13 1019.99 1020.79 1021.22 1021.80 1022.08 1022.43 1023.04 1023.16 1023.49 1023.05 1022.39 1021.99 1021.60 1021.12 1020.69 1020.31 1020.02 1019.64 1019.13 1018.50 1017.95
1002.05 1003.27 1003.64 1005.69 1006.76 1008.04 1009.60 1010.83 1011.79 1012.79 1013.74 1014.68 1015.73 1016.94 1017.81 1018.57 1019.44 1020.56 1021.00 1021.48 1022.20 1022.60 1022.86 1023.73 1023.95 1023.96 1023.58 1023.14 1022.55 1022.21 1021.93 1021.61 1021.18 1020.63 1020.10 1019.55 1019.08 1018.62
1003.20 1004.57 1005.27 1007.30 1008.17 1008.89 1009.96 1011.57 1013.05 1014.08 1014.97 1015.90 1016.80 1017.70 1018.45 1019.21 1019.88 1020.62 1021.38 1021.97 1022.54 1023.04 1023.27 1024.16 1024.22 1024.43 1024.02 1023.69 1023.05 1022.77 1022.51 1022.11 1021.60 1021.06 1020.58 1020.02 1019.63 1019.28
1005.39 1006.40 1006.95 1008.37 1009.61 1009.55 1010.76 1012.65 1014.30 1015.68 1016.29 1016.78 1017.58 1018.29 1018.87 1019.48 1020.22 1020.99 1022.12 1022.86 1023.78 1024.12 1024.06 1024.26 1024.40 1024.55 1024.48 1024.36 1023.80 1023.20 1022.81 1022.34 1021.86 1021.39 1021.01 1020.69 1020.39 1019.99
1007.73 1008.54 1009.01 1009.78 1010.97 1011.55 1012.33 1013.86 1015.59 1017.36 1018.08 1019.16 1019.75 1020.26 1020.85 1020.83 1020.87 1021.70 1022.54 1023.45 1024.03 1024.47 1024.26 1024.40 1024.69 1024.60 1025.02 1024.78 1024.44 1023.97 1023.51 1022.83 1022.48 1022.13 1021.68 1021.06 1020.54 1020.31
1008.61 1010.00 1011.04 1011.56 1012.34 1013.62 1014.43 1015.65 1016.81 1018.26 1019.29 1020.06 1020.83 1021.31 1021.77 1022.21 1022.61 1022.85 1023.34 1023.86 1024.34 1024.67 1024.20 1024.17 1024.67 1024.75 1025.01 1025.30 1025.03 1024.56 1024.17 1023.79 1023.34 1022.85 1022.56 1021.91 1021.26 1020.66
1010.20 1011.37 1012.48 1013.13 1014.08 1015.12 1016.00 1017.08 1018.06 1019.10 1019.94 1020.84 1021.85 1022.76 1023.17 1023.50 1023.80 1023.94 1024.14 1024.39 1024.59 1024.76 1024.58 1024.48 1025.12 1025.32 1025.59 1025.74 1025.65 1025.19 1024.71 1024.41 1023.95 1023.62 1023.17 1022.54 1021.79 1021.08
1011.75 1012.86 1013.70 1014.62 1015.49 1016.44 1017.40 1018.32 1019.16 1020.08 1021.11 1022.00 1023.02 1023.80 1024.24 1024.50 1024.66 1024.75 1024.90 1025.08 1025.13 1025.22 1025.34 1025.46 1025.66 1025.78 1025.91 1026.22 1026.27 1026.01 1025.36 1025.05 1024.61 1024.37 1023.90 1023.19 1022.56 1021.74
1013.48 1014.44 1015.15 1015.95 1016.79 1017.81 1018.79 1019.76 1020.60 1021.45 1022.14 1022.92 1023.72 1024.24 1024.75 1025.04 1025.36 1025.66 1025.84 1026.01 1026.01 1026.36 1026.41 1026.30 1026.40 1026.49 1026.84 1026.87 1026.80 1026.65 1026.22 1025.96 1025.53 1025.10 1024.53 1023.85 1022.96 1022.26
1014.52 1015.72 1016.74 1017.61 1018.51 1019.53 1020.39 1021.24 1021.96 1022.59 1023.12 1023.76 1024.32 1024.87 1025.22 1025.44 1025.80 1026.06 1026.38 1026.70 1026.98 1027.29 1027.53 1027.50 1027.37 1027.25 1027.36 1027.46 1027.46 1027.28 1027.00 1026.58 1025.99 1025.73 1025.11 1024.58 1024.16 1023.42
1015.59 1016.84 1018.14 1019.10 1019.97 1020.99 1021.74 1022.41 1022.94 1023.47 1024.09 1024.61 1025.15 1025.57 1025.94 1026.23 1026.50 1026.76 1026.99 1027.34 1027.56 1027.80 1028.02 1028.10 1028.06 1027.99 1027.93 1027.81 1027.83 1028.06 1027.55 1027.23 1026.60 1026.20 1026.03 1025.58 1025.18 1024.52
1016.91 1018.45 1019.47 1020.50 1021.36 1022.04 1022.62 1023.20 1023.88 1024.45 1024.89 1025.42 1025.86 1026.25 1026.53 1026.75 1027.25 1027.57 1027.83 1028.05 1028.32 1028.43 1028.45 1028.35 1028.44 1028.57 1028.69 1028.76 1028.83 1028.11 1028.15 1027.69 1027.31 1027.02 1026.75 1026.42 1026.16 1025.64
1018.81 1019.81 1020.82 1021.68 1022.32 1022.88 1023.45 1024.01 1024.71 1025.33 1025.78 1026.17 1026.58 1026.94 1027.26 1027.54 1027.95 1028.29 1028.56 1028.76 1028.87 1029.00 1029.03 1028.93 1028.86 1028.94 1028.95 1029.04 1029.18 1029.09 1028.32 1028.12 1027.60 1027.51 1027.36 1026.96 1026.58 1025.99
1020.44 1021.23 1021.88 1022.49 1023.14 1023.69 1024.28 1024.89 1025.48 1026.02 1026.43 1026.87 1027.34 1027.69 1028.00 1028.20 1028.59 1028.77 1028.84 1028.96 1029.19 1029.37 1029.48 1029.37 1028.93 1028.36 1028.92 1029.00 1029.31 1029.56 1029.15 1028.45 1028.17 1028.00 1027.87 1027.60 1027.31 1026.98
1021.62 1022.16 1022.86 1023.40 1023.96 1024.51 1025.10 1025.61 1026.16 1026.66 1027.11 1027.51 1027.92 1028.25 1028.54 1028.74 1028.98 1029.23 1029.45 1029.63 1029.74 1029.81 1029.80 1029.62 1029.41 1029.32 1029.46 1029.73 1029.92 1029.88 1029.78 1029.41 1028.88 1028.52 1028.26 1028.13 1028.07 1027.85
1022.55 1023.06 1023.72 1024.27 1024.78 1025.28 1025.77 1026.27 1026.79 1027.30 1027.70 1028.05 1028.43 1028.75 1028.98 1029.22 1029.42 1029.59 1029.75 1029.90 1030.05 1030.16 1030.21 1030.34 1030.24 1030.19 1030.30 1030.35 1030.16 1030.24 1030.12 1029.86 1029.49 1029.27 1029.02 1028.53 1028.42 1028.36
Wind_Speed
11 11 10 8 8 8 10 13 9 8 3 3 3 6 10 11 16 14 14 27 27 26 24 23 24 24 23 21 21 21 20 20 22 21 22 22 22 21
10 12 11 5 10 10 11 8 4 13 8 2 4 5 11 11 16 14 15 21 25 24 24 23 24 24 20 21 20 18 18 20 21 21 21 21 20 20
14 14 9 14 10 10 10 8 10 12 14 5 4 6 11 13 12 11 10 11 13 24 23 23 22 20 19 20 18 18 19 21 21 20 20 19 18 19
15 12 11 11 15 13 9 13 11 10 19 16 6 5 10 11 12 12 10 10 11 20 20 22 20 21 21 19 17 18 19 20 20 19 17 20 19 21
10 12 14 15 14 13 13 13 13 12 12 13 10 6 6 8 10 10 8 6 8 18 19 20 22 21 18 18 18 18 19 18 19 18 15 19 20 21
14 15 16 16 19 18 15 17 15 16 14 11 11 9 6 4 8 8 7 4 4 8 16 18 18 19 19 18 18 19 18 21 19 18 17 16 18 18
13 13 14 20 25 23 15 17 18 16 13 12 10 8 7 6 7 6 7 6 5 6 6 7 6 5 8 14 16 21 22 23 18 18 17 16 14 14
18 17 20 26 27 30 31 24 20 20 15 11 9 9 5 9 7 7 6 5 5 4 5 4 5 4 4 5 19 18 20 22 22 22 17 18 18 19
20 20 19 17 23 21 30 30 27 26 21 11 12 8 9 4 7 8 6 6 4 2 6 3 3 4 4 5 15 16 17 19 19 20 20 17 16 18
21 19 23 20 21 23 24 21 19 18 16 13 14 13 12 11 12 10 8 6 5 5 5 4 2 1 2 3 13 15 14 15 17 18 18 19 18 17
19 18 22 22 32 36 26 24 22 19 26 30 27 25 23 20 13 8 8 8 4 3 4 4 2 3 2 3 5 15 16 16 17 20 22 21 20 18
18 21 32 27 33 32 23 21 21 16 17 15 14 18 18 19 23 10 5 8 4 4 3 3 1 2 3 3 4 4 5 16 19 21 20 23 23 4
16 15 16 34 35 33 29 18 20 18 22 14 12 11 12 12 10 10 8 7 5 3 3 3 3 4 4 1 3 4 4 5 5 8 18 21 21 18
17 16 20 34 35 34 25 33 31 21 12 12 11 10 10 9 8 8 8 7 5 5 5 6 3 4 3 3 3 5 4 5 7 8 8 14 20 22
17 27 35 34 34 29 32 30 23 12 11 11 10 9 7 7 7 8 8 7 8 11 10 9 6 5 4 3 2 4 4 5 5 6 7 9 9 8
27 20 25 26 26 24 18 16 11 9 9 8 6 4 4 4 4 4 6 4 7 7 8 10 10 9 6 5 5 6 7 4 5 8 8 8 11 11
20 15 14 14 14 13 12 10 8 7 9 8 8 7 5 5 5 4 4 3 4 3 5 6 8 10 9 6 5 6 6 4 4 6 8 9 10 12
16 14 13 12 12 10 10 9 8 11 8 8 7 5 6 6 7 5 4 4 5 5 4 2 2 4 4 8 13 5 6 4 5 7 5 7 9 11
15 13 13 11 9 9 9 9 10 8 7 7 6 5 5 6 7 5 4 5 8 7 6 5 6 4 5 7 4 15 3 4 4 6 6 6 6 7
12 12 11 9 9 9 8 9 9 7 7 7 7 7 6 6 7 7 6 6 6 5 5 4 4 3 3 3 2 3 12 4 5 3 4 4 8 18
11 11 9 9 8 8 8 8 9 8 7 8 8 8 5 5 5 4 8 12 9 3 4 3 2 8 3 2 4 2 4 11 10 5 3 3 4 7
9 10 9 9 8 9 8 7 8 8 7 7 7 6 5 4 5 5 5 4 4 4 3 3 5 5 5 4 4 3 2 4 6 12 12 9 2 4
10 9 8 8 7 7 7 7 7 7 6 7 7 5 5 5 5 5 5 5 4 4 4 4 4 4 4 4 7 4 7 5 4 5 5 9 9 10
Wind_Direction
262 239 229 219 150 158 160 159 155 136 133 15 72 59 90 85 88 85 82 82 79 75 71 68 64 58 50 45 41 36 33 34 22 15 16 14 22 21
256 250 228 145 153 157 157 167 142 139 126 106 45 87 89 90 85 78 82 82 80 77 72 66 60 57 50 42 37 31 28 34 26 20 21 18 20 21
255 239 211 148 147 156 150 138 130 130 118 106 74 84 100 106 100 95 90 84 79 78 76 71 65 57 47 39 33 34 36 34 28 23 23 22 27 27
238 225 148 139 139 148 137 126 128 134 125 125 108 102 97 93 97 96 88 77 79 82 76 69 63 55 47 40 36 35 38 30 28 28 26 24 29 31
209 153 146 145 137 121 118 118 118 114 116 121 121 113 103 111 105 97 93 81 81 73 70 64 57 53 49 48 42 43 35 31 35 31 27 21 26 31
153 145 143 139 128 124 120 119 124 118 118 116 111 112 115 114 108 109 95 66 77 62 57 63 59 46 41 34 55 40 23 38 33 36 31 24 22 20
132 130 121 118 126 124 123 125 130 119 117 118 116 120 126 132 115 104 103 94 59 78 66 62 55 34 23 32 43 37 37 39 40 36 30 39 36 31
105 103 107 105 107 110 114 124 124 123 120 120 127 127 119 116 119 122 125 117 84 29 82 58 68 36 9 20 44 39 30 34 37 36 35 25 21 24
104 104 96 100 103 107 110 109 106 106 108 118 112 106 108 106 96 93 84 89 90 85 89 76 68 54 27 22 51 48 42 35 33 30 26 23 21 14
96 104 106 112 117 113 103 91 84 78 80 82 83 82 82 86 100 112 110 95 60 55 90 88 58 89 28 355 47 39 38 33 31 31 29 23 23 15
86 100 104 103 108 105 98 94 88 87 85 86 88 92 92 101 114 107 93 88 64 33 10 96 28 71 56 9 0 33 18 28 26 30 30 25 26 11
96 91 98 103 100 96 96 102 96 87 86 81 71 64 61 63 61 66 108 111 99 42 314 88 136 145 39 343 6 6 355 19 26 28 20 16 18 358
96 96 97 100 97 97 96 96 103 107 94 89 83 71 62 59 60 62 63 93 90 76 343 99 37 29 68 19 1 346 14 351 5 18 15 11 12 11
99 97 99 101 101 102 101 104 103 99 92 86 84 79 76 71 64 64 61 65 81 103 37 59 67 82 74 34 17 349 359 8 21 13 7 7 2 4
100 107 103 102 101 96 99 97 91 88 93 93 95 98 99 102 89 73 63 52 55 55 55 56 52 46 67 61 39 11 21 15 7 12 4 2 360 348
96 96 100 98 93 92 86 83 84 86 97 102 105 101 99 87 94 93 88 60 73 58 44 60 57 56 48 33 50 38 14 29 358 20 9 14 12 11
97 90 89 87 86 85 81 82 83 78 86 83 86 83 74 72 73 79 83 77 82 84 70 65 67 71 66 55 39 22 17 355 356 33 24 22 20 13
93 94 90 90 90 94 96 91 84 90 84 89 83 81 82 80 78 71 67 70 68 56 68 45 37 47 35 42 60 17 14 349 360 23 8 24 19 13
88 91 93 91 93 92 90 91 90 85 84 86 88 84 80 85 86 73 66 64 63 59 50 54 66 69 75 70 326 31 37 350 5 29 28 29 14 12
87 92 93 95 96 93 91 92 90 84 83 82 81 79 75 80 83 80 77 83 81 72 65 42 55 71 107 147 138 326 15 29 18 25 24 21 16 23
90 91 95 97 93 91 88 89 93 94 90 92 89 92 84 90 86 84 98 97 93 69 72 51 324 78 120 62 47 20 341 20 57 34 358 28 9 23
94 93 92 90 90 95 93 90 92 91 90 93 92 90 89 87 86 87 86 88 78 79 74 48 33 42 48 55 33 25 350 336 9 41 41 53 27 23
97 95 95 97 92 92 95 94 94 93 90 93 93 88 85 81 79 82 83 85 89 73 66 50 40 48 58 50 59 31 28 21 15 9 350 4 22 33